Change the Weather History Date:

Wednesday, October 24, 2012

  Actual Average Record
Temperature  
Mean Temperature 36 °F 41 °F  
Max Temperature 48 °F 51 °F 74 °F (1963)
Min Temperature 23 °F 31 °F 18 °F (1974)
Degree Days  
Heating Degree Days 29 24  
Month to date heating degree days 438 490  
Since 1 July heating degree days 764 958  
Cooling Degree Days 0 0  
Month to date cooling degree days 0 0  
Year to date cooling degree days 277 191  
Moisture  
Dew Point 25 °F    
Average Humidity 65    
Maximum Humidity 92    
Minimum Humidity 38    
Precipitation  
Precipitation 0.00 in 0.12 in 2.47 in (1990)
Month to date precipitation 5.09 2.81  
Year to date precipitation 38.88 31.83  
Sea Level Pressure  
Sea Level Pressure 30.15 in    
Wind  
Wind Speed 5 mph (NNW)    
Max Wind Speed 20 mph    
Max Gust Speed 24 mph    
Visibility 10 miles    
Events      
T = Trace of Precipitation, MM = Missing Value Source: NWS Daily Summary

Daily Weather History Graph

Daily Weather History Graph

Search for Another Location

Airport or City:

Trip Planner

Search our weather history database for the weather conditions in past years. The results will help you decide how hot, cold, wet, or windy it might be!

Date:

Astronomy

Oct. 24, 2012 Rise Set
Actual Time 7:01 AM EDT 5:28 PM EDT
Civil Twilight 6:30 AM EDT 5:59 PM EDT
Nautical Twilight 5:55 AM EDT 6:34 PM EDT
Astronomical Twilight 5:20 AM EDT 7:08 PM EDT
Moon 2:56 PM EDT (10/24) 1:36 AM EDT (10/24)
Length of Visible Light 11h 28m
Length of Day
10h 27m
Waxing Gibbous, 76% of the Moon is Illuminated
Oct 24
Waxing Gibbous
Oct 29
Full
Nov 6
Last Quarter
Nov 13
New
Nov 20
First Quarter

Hourly Weather History & Observations

Time (EDT) Temp. Windchill Dew Point Humidity Pressure Visibility Wind Dir Wind Speed Gust Speed Precip Events Conditions
12:53 AM 32.0 °F - 26.1 °F 79% 30.09 in 10.0 mi Calm Calm - N/A   Clear
1:53 AM 28.4 °F - 24.8 °F 86% 30.07 in 10.0 mi Calm Calm - N/A   Clear
2:53 AM 32.0 °F 28.7 °F 25.0 °F 75% 30.10 in 10.0 mi WNW 3.5 mph - N/A   Clear
3:53 AM 30.9 °F - 25.0 °F 79% 30.11 in 10.0 mi Calm Calm - N/A   Clear
4:53 AM 28.9 °F - 25.0 °F 85% 30.12 in 10.0 mi Calm Calm - N/A   Clear
5:53 AM 25.0 °F - 23.0 °F 92% 30.12 in 10.0 mi Calm Calm - N/A   Clear
6:53 AM 26.1 °F - 24.1 °F 92% 30.13 in 10.0 mi Calm Calm - N/A   Clear
7:53 AM 30.0 °F - 26.1 °F 85% 30.14 in 10.0 mi Calm Calm - N/A   Clear
8:53 AM 36.0 °F 29.0 °F 27.0 °F 70% 30.16 in 10.0 mi North 9.2 mph - N/A   Clear
9:53 AM 39.0 °F 31.0 °F 26.1 °F 60% 30.16 in 10.0 mi NNW 13.8 mph - N/A   Clear
10:53 AM 43.0 °F 35.7 °F 26.1 °F 51% 30.14 in 10.0 mi North 15.0 mph 20.7 mph N/A   Clear
11:53 AM 45.0 °F 38.5 °F 25.0 °F 46% 30.13 in 10.0 mi North 13.8 mph - N/A   Clear
12:53 PM 46.0 °F 40.6 °F 23.0 °F 40% 30.12 in 10.0 mi NW 11.5 mph - N/A   Clear
1:53 PM 46.9 °F - 23.0 °F 39% 30.10 in 10.0 mi NNW 10.4 mph - N/A   Clear
2:53 PM 48.0 °F - 24.1 °F 39% 30.11 in 10.0 mi NNW 12.7 mph - N/A   Clear
3:53 PM 46.9 °F - 24.1 °F 41% 30.10 in 10.0 mi North 10.4 mph - N/A   Clear
4:53 PM 43.0 °F 37.7 °F 25.0 °F 49% 30.13 in 10.0 mi North 9.2 mph - N/A   Clear
5:53 PM 37.9 °F 35.5 °F 24.1 °F 57% 30.16 in 10.0 mi NNE 3.5 mph - N/A   Clear
6:53 PM 32.0 °F - 26.1 °F 79% 30.18 in 10.0 mi Calm Calm - N/A   Clear
7:53 PM 28.9 °F - 24.1 °F 82% 30.20 in 10.0 mi Calm Calm - N/A   Clear
8:53 PM 26.6 °F - 24.8 °F 93% 30.19 in 10.0 mi Calm Calm - N/A   Clear
9:53 PM 28.0 °F - 24.1 °F 85% 30.23 in 10.0 mi Calm Calm - N/A   Clear
10:53 PM 27.0 °F - 21.9 °F 81% 30.24 in 10.0 mi Calm Calm - N/A   Clear
11:53 PM 26.1 °F - 21.9 °F 84% 30.25 in 10.0 mi Calm Calm - N/A   Clear